Regional Weather Roundup
Issued by NWS Northern Indiana

Home | Current Version | Previous Version | Text Only | Print | Product List | Glossary Off
Versions: 1 2 3 4 5 6 7 8 9 10 11 12 13 14 15 16 17 18 19 20 21 22 23 24 25 26 27 28 29 30 31 32 33 34 35 36 37 38 39 40 41 42 43 44 45 46 47 48 49 50

000
ASUS43 KIWX 222010
RWRIWX

KIWX WEATHER ROUNDUP
NATIONAL WEATHER SERVICE NORTHERN INDIANA
300 PM EST SUN JAN 22 2017

NOTE: "FAIR" INDICATES FEW OR NO CLOUDS BELOW 12,000 FEET WITH NO
SIGNIFICANT WEATHER AND/OR OBSTRUCTIONS TO VISIBILITY.

* THESE STATIONS ARE NOT UNDER NWS QUALITY CONTROL. THEY ALSO MAY NOT
  REPORT WEATHER SUCH AS PRECIPITATION OR FOG.

INZ001>027-222100-
NORTHERN INDIANA

CITY           SKY/WX    TMP DP  RH WIND       PRES   REMARKS
GARY*          FOG       41  41 100 N8        29.61F VSB 1/4
VALPARAISO     CLOUDY    45  42  89 N9        29.59S
LAPORTE*       CLOUDY    43  42  96 N9        29.59S FOG
KNOX*          CLOUDY    45  37  76 N10       29.57S
SOUTH BEND     FOG       42  42 100 N8        29.59S VSB 1/2
ELKHART*       CLOUDY    43  41  93 CALM      29.58S FOG
GOSHEN         CLOUDY    51  47  86 N8        29.56S
ROCHESTER*     MOSUNNY   54  48  82 N8        29.55S
WARSAW*        PTSUNNY   50  50 100 N5        29.55S
FORT WAYNE     CLOUDY    61  51  70 NE9       29.53F
PERU/GRISSOM   PTSUNNY   58  53  82 N9        29.50F
MARION*        PTSUNNY   61  52  72 NE7       29.51F

$$
INZ028>050-222100-
CENTRAL INDIANA

CITY           SKY/WX    TMP DP  RH WIND       PRES   REMARKS
LAFAYETTE      MOSUNNY   53  49  86 N9        29.52S
KOKOMO*        CLOUDY    58  53  84 N12       29.52F
MUNCIE*        CLOUDY    62  52  69 NE6       29.50S
INDIANAPOLIS   CLOUDY    61  50  67 N9        29.47F

$$
MIZ043>046-050>051-056>058-064>065-071>073-077>080-222100-
SOUTHWEST LOWER MICHIGAN

CITY           SKY/WX    TMP DP  RH WIND       PRES   REMARKS
BATTLE CREEK   CLOUDY    44  43  96 NE5       29.59S FOG
BENTON HARBOR  FOG       42  41  96 VRB3      29.60S VSB 1
COLDWATER*     CLOUDY    50  50 100 NE3       29.57S
HILLSDALE*     CLOUDY    52  46  82 N5        29.56F
HOLLAND        CLOUDY    44  42  93 NE5       29.62S
GRAND RAPIDS   CLOUDY    42  40  92 N7        29.61F FOG
KALAMAZOO      FOG       42  39  89 N9        29.60S VSB 3/4
STURGIS*       CLOUDY    47  47 100 N6        29.57S FOG
THREE RIVERS*  CLOUDY    43  43 100 N3        29.59S FOG

$$
OHZ001>008-015>018-024>025-222100-
NORTHWEST OHIO

CITY           SKY/WX    TMP DP  RH WIND       PRES   REMARKS
DEFIANCE       CLOUDY    58  50  75 NE8       29.55S
FINDLAY        MOSUNNY   63  48  58 NE5       29.51F
TOLEDO EXPRESS SUNNY     62  49  62 N8        29.55F
TOLEDO METCALF SUNNY     49  45  86 NE10      29.57S
LIMA           CLOUDY    62  51  67 NE7       29.51F

$$
AND FOR LAKE MICHIGAN COASTAL AND OPEN LAKE BUOY OBSERVATIONS

STATION/POSITION TEMP    WIND        PRES    VSBY  WAVE
                 AIR SEA DIR/SP/G                  HT/PER
                 (F)     (DEG/KT/KT) (MB)    (MI)  (FT/S)
CALUMET HARBOR    39     360/  5/  7 1002.2F
MICHIGAN CITY     37     350/  8/  8   N/A
BURNS HARBOR      36     360/  6/  7 1003.4F
SAINT JOSEPH      39      20/  7/  9 1003.4

$$
&&




USA.gov is the U.S. government's official web portal to all federal, state and local government web resources and services.